Wind_Speed
11 13 14 13 12 10 11 13 15 16 17 18 16 14 11 9 8 6 5 3 2 2 2 3 3 6 9 11 10 9 8 8 9 13 13 12 11 12 14 17 18 16 15
8 11 12 12 11 10 10 12 14 15 17 17 16 14 12 10 8 6 5 4 3 2 2 3 4 6 9 12 12 11 9 7 7 9 9 7 6 7 10 13 16 17 15
5 8 11 11 11 10 10 11 13 14 15 16 16 15 12 10 9 7 6 5 4 3 2 3 4 6 9 12 14 13 11 8 6 6 6 5 2 3 4 8 12 15 16
2 5 8 10 10 9 9 9 11 13 14 15 16 15 13 11 9 8 7 6 4 4 3 4 5 6 8 12 15 15 13 10 8 6 5 4 2 2 2 3 7 11 14
2 2 5 7 8 8 8 8 9 11 13 14 15 15 14 12 11 9 8 6 5 4 4 5 6 6 6 11 15 16 15 12 10 8 6 5 4 3 2 1 3 7 10
3 1 2 5 7 8 7 7 7 8 10 12 14 15 14 13 12 11 10 8 6 5 4 4 5 5 3 8 14 16 16 14 11 9 8 7 6 5 4 3 2 4 7
5 4 1 2 5 6 6 6 6 7 8 11 13 14 15 14 13 12 11 9 7 5 4 4 4 5 1 5 11 15 16 15 13 11 10 9 8 7 6 5 4 4 5
5 5 3 1 3 5 5 5 5 6 7 10 11 13 14 13 13 13 12 10 8 6 4 3 3 3 2 4 8 12 15 15 14 12 11 11 11 9 8 7 6 5 5
4 5 5 3 1 3 4 5 5 6 7 8 10 11 12 12 12 12 12 11 9 7 5 3 2 2 2 4 7 9 11 12 12 11 10 10 10 9 9 9 8 7 7
4 6 7 5 4 2 2 4 6 7 7 7 8 9 10 10 10 11 12 12 10 8 6 3 2 1 2 4 6 7 9 10 10 10 9 8 7 6 5 6 6 7 7
3 5 8 8 7 6 5 6 7 8 9 8 7 8 8 8 8 9 11 11 11 10 7 4 2 3 4 5 5 7 8 9 9 8 8 7 6 5 3 3 3 5 6
5 5 8 9 10 10 9 8 9 10 10 9 8 7 7 6 7 7 8 10 10 10 8 5 3 4 6 7 7 8 10 10 10 9 9 9 8 7 6 5 4 5 6
7 7 8 10 12 12 11 11 11 11 12 12 11 9 7 6 6 7 7 8 9 10 9 7 4 4 6 8 10 11 12 12 12 12 12 12 12 11 11 9 8 8 8
9 8 9 10 12 13 13 13 13 13 14 14 13 12 10 8 6 6 7 7 7 8 9 9 6 4 6 9 11 13 15 15 16 16 16 16 16 16 16 15 13 11 11
12 11 11 12 13 14 15 16 16 16 16 15 14 13 12 10 9 8 7 6 7 7 8 7 6 5 6 9 11 14 17 19 20 21 21 21 21 21 20 20 18 17 16
16 14 14 14 15 16 17 18 18 17 16 16 14 13 13 12 11 10 9 8 9 9 9 8 7 7 7 9 11 13 16 19 21 23 23 23 24 24 24 23 22 22 21
19 18 17 17 18 18 19 19 18 17 16 15 14 14 14 13 13 13 12 11 11 12 12 11 10 9 9 10 11 14 16 18 20 21 23 23 24 24 24 24 23 22 22
21 20 20 20 19 20 20 20 17 16 15 14 14 14 14 15 15 15 14 13 13 14 15 15 15 14 13 12 12 14 16 18 19 20 21 23 23 23 23 23 23 22 22
23 23 22 21 21 21 21 19 17 16 16 16 15 16 16 17 17 17 16 16 16 17 18 18 18 18 17 16 16 16 17 19 20 21 21 22 23 24 24 23 23 22 22
26 25 24 23 22 21 21 20 19 18 18 18 18 18 18 18 19 19 19 18 18 20 20 21 21 21 21 20 19 19 19 20 22 22 22 23 24 24 24 24 23 22 22
28 27 27 25 24 23 22 21 21 20 20 19 19 19 19 19 20 20 20 20 21 22 23 24 24 24 24 23 22 22 22 22 23 22 22 23 24 24 24 23 22 22 22
29 28 28 28 26 25 24 23 22 22 21 21 20 20 20 20 20 21 22 23 23 24 25 26 26 26 26 25 25 25 23 23 23 23 22 23 24 24 23 23 23 23 23
32 31 30 31 30 28 27 26 25 25 24 23 22 21 21 21 21 22 23 24 25 26 27 26 26 27 27 27 27 26 25 24 23 23 23 23 24 24 23 23 23 23 24
35 34 34 34 34 33 32 30 29 27 26 24 23 23 22 23 23 23 24 25 26 26 26 26 26 28 29 29 29 28 27 26 24 24 24 24 24 24 23 23 24 24 24
39 39 39 38 38 37 35 34 31 28 26 25 24 24 24 24 24 24 25 25 25 26 26 26 26 28 29 30 31 30 30 27 25 25 24 25 25 24 23 23 24 25 25
41 43 43 42 42 40 37 34 30 27 25 23 23 23 23 23 23 24 24 25 25 25 26 27 27 28 29 30 30 31 31 29 27 26 25 26 27 25 24 23 24 25 25
Wind_Direction
49 47 46 45 47 50 51 50 50 49 45 42 40 37 35 34 38 46 48 43 22 336 298 274 255 239 226 217 213 215 220 220 223 224 221 227 238 245 245 242 241 241 244
46 43 41 42 45 49 49 47 46 45 42 39 38 37 35 33 33 37 36 31 24 355 309 294 275 257 238 224 218 216 219 220 231 219 205 210 228 248 247 240 237 237 239
47 41 37 36 41 49 49 47 46 44 41 37 35 35 35 34 31 28 24 18 15 3 334 315 294 270 245 230 222 215 213 216 221 205 182 181 211 268 264 242 233 234 235
63 43 36 33 36 45 49 48 45 44 40 36 34 33 34 35 33 26 19 13 10 3 345 330 318 287 252 231 222 215 209 211 213 202 183 190 228 305 313 246 226 226 226
186 54 39 34 34 40 46 46 42 41 38 35 34 33 34 34 32 26 18 14 9 3 350 333 327 312 264 228 219 214 210 209 211 206 202 207 228 268 282 267 225 221 222
204 179 41 33 33 35 39 41 37 35 33 33 33 33 36 34 30 24 18 16 14 6 357 343 341 338 279 217 214 214 210 207 208 211 212 220 233 260 266 257 241 221 222
211 208 212 29 33 33 33 31 25 20 21 25 28 31 34 34 30 25 22 22 20 11 2 356 359 9 46 198 208 214 214 211 211 220 229 236 247 257 254 247 244 233 229
223 216 219 304 23 28 27 21 6 358 5 16 23 28 29 32 34 32 31 31 26 15 2 358 13 34 82 163 195 209 216 215 217 225 234 244 250 249 247 242 237 235 235
240 223 222 245 311 10 14 8 354 343 349 3 15 21 25 30 36 38 37 37 32 20 6 354 5 63 115 159 185 200 210 214 222 230 246 248 243 239 237 233 232 229 236
253 231 228 241 255 277 320 334 335 335 337 344 357 8 17 26 35 39 38 36 31 22 9 356 344 181 180 188 193 199 208 221 229 237 237 233 230 226 218 221 229 233 235
286 253 244 247 254 257 267 289 307 316 323 329 337 350 2 16 31 38 38 33 27 20 10 353 291 226 215 210 205 205 213 220 224 221 221 221 221 216 208 217 231 240 247
323 290 269 262 264 263 264 273 287 298 306 315 325 333 345 1 18 30 34 31 25 20 13 356 297 248 232 225 218 214 216 221 225 229 231 228 230 235 235 232 239 251 260
329 314 293 279 273 270 268 271 279 289 295 300 307 313 323 342 2 19 27 26 20 14 10 3 335 273 245 233 228 225 224 227 231 235 238 240 241 245 248 247 248 255 262
319 315 307 297 287 280 275 274 277 285 290 293 294 297 300 309 333 357 14 17 13 9 9 7 351 308 264 244 235 231 230 230 232 235 239 243 246 250 252 253 253 256 261
310 305 301 299 294 288 282 279 279 282 285 288 289 289 289 291 301 319 338 352 352 352 358 1 349 316 284 263 248 239 236 234 234 236 239 243 247 250 252 254 255 256 259
305 301 296 294 294 292 287 282 279 280 281 282 284 286 285 285 288 297 306 321 328 330 333 338 333 316 296 279 264 252 245 242 240 240 241 243 247 250 252 253 255 257 256
301 300 296 293 291 290 288 284 280 277 275 275 278 281 283 283 283 287 291 301 309 311 314 319 319 311 300 290 278 267 257 251 249 248 247 246 247 249 251 253 255 256 254
293 294 293 291 288 286 283 281 277 273 270 270 274 277 281 283 281 282 284 286 292 296 300 304 306 304 298 292 286 278 269 261 255 253 252 250 248 247 249 252 253 254 252
283 286 287 286 285 281 278 274 270 267 266 268 271 272 275 277 277 277 275 277 282 287 289 290 293 294 294 292 288 282 274 267 260 256 255 253 249 246 247 250 250 250 247
276 278 278 279 278 277 274 269 264 261 262 264 267 269 269 270 271 270 270 273 278 282 283 284 285 287 289 288 287 283 278 272 263 258 257 255 250 246 246 248 246 244 242
271 271 272 271 271 270 268 266 262 260 260 261 262 264 266 267 265 263 265 270 275 277 279 281 282 284 286 285 284 284 281 275 268 260 257 254 249 245 245 246 242 239 237
265 265 267 267 267 264 261 259 258 258 259 259 259 260 262 261 260 259 263 267 272 273 274 276 279 280 282 284 284 283 278 274 269 262 257 253 248 244 244 243 239 236 234
260 261 262 263 263 259 256 252 251 252 254 256 258 260 261 260 259 260 263 267 270 272 273 273 274 274 276 280 281 281 277 270 267 261 254 251 247 244 244 242 238 234 233
256 257 256 256 257 254 251 244 243 246 249 253 256 259 261 262 264 267 270 272 274 275 274 273 272 270 272 274 275 276 274 268 264 260 252 249 247 245 244 240 236 234 233
251 252 250 250 252 250 245 240 237 238 243 247 252 258 261 265 268 272 275 278 279 279 278 276 274 272 272 271 271 270 270 265 261 260 253 247 245 245 244 240 237 236 235
249 249 247 246 248 244 239 235 233 232 236 243 251 257 262 268 273 276 280 283 285 285 282 280 276 274 274 272 269 267 266 264 261 260 253 248 244 242 242 239 237 239 238
Height
5893 5892 5892 5891 5891 5890 5889 5889 5888 5887 5886 5884 5883 5882 5882 5881 5881 5881 5881 5881 5882 5883 5883 5884 5885 5886 5887 5889 5890 5892 5893 5895 5896 5898 5900 5902 5904 5905 5906 5907 5909 5911 5913
5893 5893 5893 5892 5891 5891 5891 5890 5889 5888 5887 5886 5884 5883 5882 5881 5881 5881 5881 5881 5882 5882 5883 5884 5884 5885 5886 5887 5889 5891 5893 5894 5896 5897 5899 5901 5903 5903 5904 5905 5907 5909 5911
5894 5893 5893 5892 5892 5891 5891 5891 5890 5889 5888 5886 5885 5884 5883 5882 5881 5881 5881 5881 5882 5882 5883 5883 5883 5884 5884 5886 5887 5890 5892 5894 5896 5897 5899 5900 5902 5902 5902 5903 5905 5907 5909
5894 5894 5894 5893 5892 5892 5891 5891 5890 5890 5889 5887 5886 5885 5883 5883 5882 5881 5881 5881 5881 5882 5882 5882 5882 5882 5882 5883 5885 5888 5891 5893 5895 5896 5898 5900 5901 5901 5902 5902 5903 5905 5907
5894 5895 5894 5894 5893 5892 5892 5892 5891 5891 5890 5888 5887 5885 5884 5883 5882 5881 5881 5881 5881 5881 5881 5881 5881 5881 5880 5881 5884 5887 5890 5892 5894 5896 5898 5899 5900 5901 5901 5902 5902 5904 5905
5894 5894 5894 5894 5894 5893 5892 5892 5892 5892 5891 5889 5888 5886 5884 5883 5882 5881 5881 5880 5880 5880 5881 5881 5880 5880 5879 5880 5883 5885 5888 5890 5892 5895 5897 5898 5899 5900 5901 5901 5902 5903 5904
5893 5894 5894 5894 5894 5893 5893 5892 5892 5892 5891 5890 5889 5887 5885 5884 5882 5881 5880 5880 5880 5880 5880 5880 5880 5879 5879 5879 5881 5884 5887 5889 5892 5894 5896 5897 5898 5899 5900 5901 5902 5903 5903
5892 5893 5894 5894 5894 5894 5893 5893 5893 5893 5892 5891 5890 5888 5886 5885 5883 5882 5881 5880 5879 5879 5879 5879 5879 5879 5879 5880 5881 5884 5886 5889 5891 5893 5894 5895 5896 5897 5898 5899 5901 5902 5902
5891 5892 5893 5894 5894 5894 5894 5893 5893 5892 5892 5892 5891 5889 5887 5886 5884 5882 5881 5880 5879 5879 5879 5879 5879 5879 5879 5880 5881 5884 5886 5888 5890 5891 5893 5893 5894 5895 5896 5897 5899 5900 5901
5891 5892 5893 5893 5893 5893 5893 5893 5892 5892 5892 5891 5891 5889 5888 5886 5885 5883 5881 5880 5879 5878 5878 5878 5878 5878 5878 5879 5881 5883 5885 5887 5889 5890 5891 5892 5893 5893 5894 5896 5897 5898 5900
5890 5891 5891 5892 5892 5892 5892 5892 5892 5891 5891 5891 5890 5889 5888 5887 5885 5883 5882 5880 5879 5878 5877 5877 5877 5877 5878 5879 5881 5883 5885 5886 5888 5889 5890 5891 5892 5893 5894 5895 5896 5897 5898
5889 5889 5890 5890 5891 5891 5891 5891 5891 5891 5890 5890 5889 5889 5888 5887 5885 5883 5882 5880 5879 5878 5877 5876 5876 5876 5877 5878 5879 5881 5883 5885 5887 5888 5889 5890 5891 5893 5894 5894 5895 5896 5897
5888 5888 5888 5888 5889 5889 5890 5890 5889 5889 5889 5889 5888 5888 5887 5886 5885 5883 5882 5880 5879 5877 5876 5875 5875 5876 5876 5877 5878 5879 5881 5883 5885 5886 5887 5889 5890 5891 5892 5893 5894 5894 5895
5887 5886 5886 5886 5886 5887 5887 5888 5887 5887 5887 5887 5886 5886 5886 5885 5884 5883 5881 5880 5879 5877 5876 5875 5874 5874 5874 5875 5876 5877 5878 5880 5881 5883 5885 5886 5887 5888 5889 5891 5892 5892 5893
5885 5884 5884 5884 5884 5884 5885 5885 5885 5885 5885 5884 5884 5884 5883 5883 5882 5882 5880 5879 5878 5876 5875 5874 5873 5873 5872 5873 5874 5874 5875 5877 5878 5879 5880 5882 5883 5884 5885 5887 5888 5890 5890
5881 5881 5881 5881 5881 5881 5881 5882 5882 5882 5881 5881 5881 5881 5881 5880 5880 5880 5879 5877 5876 5875 5874 5872 5872 5871 5871 5871 5871 5872 5872 5873 5874 5875 5876 5877 5878 5879 5881 5882 5884 5885 5887
5877 5877 5877 5877 5877 5877 5878 5878 5878 5878 5877 5878 5877 5877 5877 5877 5877 5876 5876 5875 5874 5873 5872 5871 5870 5869 5869 5868 5868 5869 5869 5870 5870 5871 5872 5872 5873 5874 5876 5877 5878 5880 5882
5873 5873 5873 5873 5873 5874 5873 5873 5873 5874 5874 5874 5874 5874 5874 5874 5873 5873 5872 5872 5871 5870 5869 5868 5867 5866 5866 5865 5865 5865 5865 5866 5866 5866 5867 5868 5868 5869 5871 5872 5873 5875 5877
5870 5869 5869 5869 5869 5869 5869 5869 5869 5869 5870 5870 5870 5870 5869 5869 5869 5869 5868 5868 5867 5867 5866 5865 5865 5864 5863 5862 5861 5861 5861 5861 5861 5862 5862 5863 5864 5864 5866 5867 5868 5870 5872
5865 5865 5864 5864 5865 5865 5864 5864 5864 5865 5865 5865 5865 5865 5865 5864 5864 5864 5864 5863 5863 5862 5861 5861 5860 5860 5859 5858 5857 5857 5856 5856 5856 5857 5857 5858 5859 5860 5861 5862 5863 5865 5867
5859 5859 5859 5859 5859 5859 5859 5859 5859 5859 5859 5860 5860 5860 5859 5859 5859 5859 5859 5859 5858 5857 5857 5856 5855 5854 5853 5853 5853 5852 5852 5851 5851 5851 5852 5853 5854 5855 5856 5858 5859 5860 5863
5853 5853 5853 5852 5852 5853 5853 5853 5853 5853 5853 5854 5854 5854 5854 5854 5854 5854 5854 5853 5853 5852 5851 5850 5849 5848 5848 5847 5847 5847 5847 5846 5845 5846 5847 5847 5848 5850 5851 5853 5854 5856 5858
5846 5846 5847 5846 5845 5845 5845 5845 5845 5846 5846 5847 5847 5848 5848 5848 5848 5848 5848 5848 5847 5846 5845 5844 5844 5843 5842 5841 5841 5841 5841 5841 5841 5841 5841 5842 5843 5845 5846 5848 5849 5851 5854
5838 5839 5840 5839 5838 5837 5836 5836 5836 5838 5839 5840 5841 5841 5842 5842 5842 5842 5842 5841 5840 5839 5838 5837 5837 5837 5836 5836 5835 5835 5835 5835 5835 5835 5836 5837 5839 5840 5841 5843 5845 5847 5849
5828 5829 5831 5831 5830 5828 5827 5826 5828 5830 5833 5834 5835 5836 5836 5836 5836 5836 5835 5834 5833 5832 5831 5831 5830 5830 5829 5829 5828 5828 5828 5828 5829 5830 5831 5832 5834 5835 5837 5838 5840 5842 5844
5817 5819 5821 5821 5821 5820 5819 5819 5820 5823 5826 5828 5829 5830 5830 5830 5830 5829 5829 5828 5826 5825 5825 5824 5823 5823 5822 5822 5821 5821 5821 5821 5822 5824 5825 5827 5828 5830 5832 5834 5835 5837 5839